Regional Weather Roundup
Issued by NWS

Home | Current Version | Previous Version | Graphics & Text | Print | Product List | Glossary On
Versions: 1 2 3 4 5 6 7 8 9 10 11 12 13 14 15 16 17 18 19 20 21 22 23 24 25 26 27 28 29 30 31 32 33 34 35 36 37 38 39 40 41 42 43 44 45 46 47 48 49 50
000
ASUS43 KLMK 011102
RWRKY
KENTUCKY REGIONAL WEATHER ROUNDUP
NATIONAL WEATHER SERVICE LOUISVILLE KY
600 AM EST SUN FEB 01 2015

NOTE "FAIR" INDICATES FEW OR NO CLOUDS BELOW 12,000 FEET
WITH NO SIGNIFICANT WEATHER AND/OR OBSTRUCTIONS TO VISIBILITY.

KYZ001>023-026-027-061>063-070>075-011200-
WESTERN AND SOUTH CENTRAL KENTUCKY

CITY           SKY/WX    TMP DP  RH WIND       PRES   REMARKS
PADUCAH        CLOUDY    48  23  37 S12       29.90F
HENDERSON      CLOUDY    43  21  42 SE10      29.94F
OWENSBORO      CLOUDY    42  23  47 S12       29.97F
HOPKINSVILLE   CLOUDY    45  20  37 SE7       29.99F
BOWLING GREEN  CLOUDY    41  22  46 CALM      30.04F
GLASGOW        NOT AVBL
$$

KYZ024-025-028>034-038-045-046-053-011200-
NORTH CENTRAL KENTUCKY

CITY           SKY/WX    TMP DP  RH WIND       PRES   REMARKS
LOUISVILLE/SDF CLOUDY    40  20  44 SE9       30.06F WCI  34
LOUISVILLE/LOU CLOUDY    40  18  41 S5        30.07R
FORT KNOX      CLOUDY    38  20  47 E7        30.02F WCI  33
$$

KYZ035>037-039>044-047>052-055>060-089>105-011200-
NORTHEAST KENTUCKY

CITY           SKY/WX    TMP DP  RH WIND       PRES   REMARKS
LEXINGTON      CLOUDY    37  16  42 SE13      30.11F WCI  29
COVINGTON      CLOUDY    35  25  66 E9        30.07F WCI  28
FRANKFORT      CLOUDY    38  18  44 SE12      30.07F WCI  30
$$

KYZ054-064>069-076>088-106>120-011200-
SOUTHEAST KENTUCKY

CITY           SKY/WX    TMP DP  RH WIND       PRES   REMARKS
JACKSON        CLOUDY    36  14  40 E5        30.15F WCI  32
LONDON         CLOUDY    38  15  39 SE3       30.11F
SOMERSET       NOT AVBL
MIDDLESBORO    NOT AVBL
MONTICELLO     CLOUDY    44  15  31 S12       30.11F
$$




USA.gov is the U.S. government's official web portal to all federal, state and local government web resources and services.